Regional Weather Roundup
Issued by NWS Midland/Odessa, TX

Home | Current Version | Previous Version | Text Only | Print | Product List | Glossary On
Versions: 1 2 3 4 5 6 7 8 9 10 11 12 13 14 15 16 17 18 19 20 21 22 23 24 25 26 27 28 29 30 31 32 33 34 35 36 37 38 39 40 41 42 43 44 45 46 47 48 49 50
000
ASUS44 KMAF 231510
RWRMAF
MIDLAND AREA WEATHER ROUNDUP
NATIONAL WEATHER SERVICE MIDLAND TX
1000 AM CDT TUE SEP 23 2014

...IN SOUTHWEST TEXAS AND SOUTHEAST NEW MEXICO...

CITY           SKY/WX    TMP DP  RH WIND       PRES   REMARKS
ALPINE         MOSUNNY   70  53  56 SE3       30.31R
ANDREWS        PTSUNNY   69  62  77 S9        30.22R
ARTESIA        NOT AVBL
BIG SPRING     PTSUNNY   74  67  78 SE12      30.23R
CARLSBAD       CLOUDY    67  66  97 S5        30.19R
DRYDEN           N/A     78  65  63 E5        30.16R
FORT STOCKTON  PTSUNNY   71  59  65 SE8       30.20R
GUAD PASS      CLOUDY    63  52  67 E6        30.32R
HOBBS          PTSUNNY   66  66 100 E7        30.24R
MARFA          PTSUNNY   66  55  68 SE6       30.29R
MIDLAND AIRPK  CLOUDY    72  64  76 SE9       30.21S
MIDLAND INTL   PTSUNNY   71  64  78 S9        30.20R
ODESSA         PTSUNNY   70  62  76 S8        30.21R
PECOS          MOSUNNY   70  61  72 E7        30.17R
PRESIDIO       FAIR      75  56  52 NE10      30.17R
SEMINOLE       PTSUNNY   70  63  78 SE6       30.23R
SNYDER         PTSUNNY   69  61  75 S7        30.21S
WINK           MOSUNNY   73  61  65 SE13G23   30.17R
$$
...OTHER STATIONS IN TEXAS...

CITY           SKY/WX    TMP DP  RH WIND       PRES   REMARKS
ABILENE        MOSUNNY   74  53  48 S12       30.20R
AMARILLO       MOSUNNY   69  61  75 S21       30.20R
AUSTIN         MOSUNNY   72  59  63 NE7       30.17R
BROWNSVILLE    SUNNY     81  75  82 NW7       30.05R
CORPUS CHRISTI PTSUNNY   81  73  76 NE14      30.08R
DALLAS FTW     PTSUNNY   71  51  49 SE12      30.20R
DEL RIO        MOSUNNY   80  65  59 SE7       30.12R
EL PASO        PTSUNNY   69  62  78 CALM      30.20R
HOUSTON INT    MOSUNNY   73  57  57 NE10      30.14R
LUBBOCK        CLOUDY    68  63  84 S14       30.21R
SAN ANGELO     MOSUNNY   73  65  75 E6        30.20R
SAN ANTONIO    MOSUNNY   78  60  53 E10       30.15R
WACO           SUNNY     71  55  56 NE6       30.19S
WICHITA FALLS  NOT AVBL
$$
...OTHER LOCATIONS IN NEW MEXICO...

CITY           SKY/WX    TMP DP  RH WIND       PRES   REMARKS
ALAMAGORDO     PTSUNNY   68  61  77 CALM      30.24R
ALBUQUERQUE    MOSUNNY   63  58  83 CALM      30.29R
CANNON AFB     MOSUNNY   65  54  67 SW10      30.24R
CLOVIS           N/A     66  61  82 S13       30.26R
HOLLOMAN AFB   MOSUNNY   69  59  69 S3        30.21R
ROSWELL        PTSUNNY   67  63  87 S6        30.20R
RUIDOSO        FOG       55  55 100 CALM      30.38R VSB 1/4
SANTA FE       CLOUDY    63  56  78 W6        30.32R
TRUTH OR CONSE MOSUNNY   66  61  84 VRB3      30.26S
TUCUMCARI      PTSUNNY   69  61  75 SW18      30.20R
$$


USA.gov is the U.S. government's official web portal to all federal, state and local government web resources and services.